Weather Roundup
Issued by NWS Corpus Christi, TX

Home | Current Version | Previous Version | Text Only | Print | Product List | Glossary On
Versions: 1 2 3 4 5 6 7 8 9 10 11 12 13 14 15 16 17 18 19 20 21 22 23 24 25 26 27 28 29 30 31 32 33 34 35 36 37 38 39 40 41 42 43 44 45 46 47 48 49 50
000
ASUS44 KCRP 081910
HRRCRP

SOUTH TEXAS REGIONAL WEATHER ROUNDUP
NATIONAL WEATHER SERVICE CORPUS CHRISTI TX
100 PM CST THU DEC 08 2016


TXZ229>244-082000-
...CORPUS CHRISTI AREA OBSERVATIONS...

CITY           SKY/WX    TMP DP  RH WIND       PRES   REMARKS
CORPUS CHRISTI DRIZZLE   46  43  89 N21G30    30.36R
NAS CORPUS CHR CLOUDY    47  44  90 N26G35    30.34R
ROCKPORT         N/A    N/A N/A N/A MISG      30.35S
KINGSVILLE NAS LGT RAIN  46  44  93 N21G29    30.36S
ALICE            N/A    N/A N/A N/A MISG      30.39R
ORANGE GROVE   CLOUDY    44  41  89 N20G26    30.40R
FALFURRIAS     CLOUDY    46  43  90 N16G25    30.38R
$$

...VICTORIA AREA OBSERVATIONS...

CITY           SKY/WX    TMP DP  RH WIND       PRES   REMARKS
VICTORIA       CLOUDY    47  39  74 N20G30    30.37F
BEEVILLE       CLOUDY    45  42  91 N13       30.40S
PLEASANTON     CLOUDY    46  31  56 N10       30.45S
SAN ANTONIO    CLOUDY    43  28  55 N21G28    30.45F
$$

...LAREDO AREA OBSERVATIONS...

CITY           SKY/WX    TMP DP  RH WIND       PRES   REMARKS
LAREDO         RAIN      45  43  93 N14       30.45R
COTULLA        CLOUDY    48  32  53 N15       30.46F
DEL RIO        CLOUDY    44  30  57 N8        30.51F
MCALLEN        LGT RAIN  54  50  86 N21G28    30.34S FOG
HEBBRONVILLE   LGT RAIN  43  41  93 N14G23    30.40S
$$

...OTHER TEXAS OBSERVATIONS...

CITY           SKY/WX    TMP DP  RH WIND       PRES   REMARKS
BROWNSVILLE    LGT RAIN  57  55  93 N20G32    30.24S
HOUSTON        CLOUDY    48  38  68 N20G28    30.40F
COL. STATION   CLOUDY    44  32  62 N17G25    30.48F
AUSTIN         CLOUDY    43  29  57 N29G36    30.47S
WACO           CLOUDY    38  24  57 N23G29    30.58F WCI  27
FORT WORTH     CLOUDY    34  15  46 N17       30.62F WCI  23
WICHITA FALLS  CLOUDY    31  13  47 N14G23    30.68F WCI  21
LUBBOCK        CLOUDY    28  13  53 N7        30.55F
EL PASO        PTSUNNY   39  23  52 E12       30.39F WCI  32
$$

...MARINE OBSERVATIONS...

STATION/POSITION TIME  SKY/WX   TEMP    WIND        PRES    VSBY  WAVE   SWELL
                                AIR SEA DIR/SP/G                  HT/PER HT/PER
                 (UTC)          (F)     (DEG/KT/KT) (MB)    (MI)  (FT/S) (FT/S)
PORT ARANSAS     1900            49 63  360/ 29/ 34 1026.1F
BUOY 90 E PORT A 1850            62 77   20/ 31/ 37 1023.1F        12/ 8   7/14
BUOY 45 SE BAFFI 1850            64 76   30/ 29/ 37 1021.8F        14/ 9
BUOY 200 E PT IS 1850            75 77   70/ 19/ 23 1017.7F         5/ 6
BUOY 15 E GALVES 1850            51 65   10/ 25/ 31 1026.7F         7/ 7
$$



USA.gov is the U.S. government's official web portal to all federal, state and local government web resources and services.